Location: Zagreb
(45.8000°N, 16.0000°E)
Time: 19:59:22
(UTC+02:00)

A-11 Canister half - Pass Details

Date: 12 August 2022
Orbit: 1524 x 1684 km, 47.3° (Epoch: 05 October)

Event Time Altitude Azimuth Distance (km) Brightness Sun altitude
Rises 08:16:44 0° 260° (W) 4,927 11.1 23.8°
Reaches altitude 10° 08:19:54 10° 261° (W) 3,945 10.7 24.3°
Maximum altitude 08:30:08 85° 351° (N) 1,689 9.7 26.1°
Drops below altitude 10° 08:40:15 10° 81° (E) 3,905 12.6 27.9°
Sets 08:43:22 0° 82° (E) 4,875 12.8 28.4°
